sat.trackr.live / text

‹ back to catalog

STARLINK-1327

NORAD 45555 · 2020-025AA

PAYLOAD ACTIVE UNKNOWN

§ Identity

Operator
Country
US
Launch date
2020-04-22
Launch site
AFETR
Launch vehicle
Mass (kg)
RCS (m²)

Purposes: comms

External: N2YO · Heavens-Above · Gunter

§ Orbital elements

Epoch: 2026-09-20T03:30:26.595360Z

Period
90.66 min
Inclination
53.0321°
Eccentricity
0.0004963
Mean motion
15.88363137 rev/d
Perigee alt
303.6 km
Apogee alt
310.2 km
Semi-major
6,685.0 km
B*
4.4642e-4
RAAN
184.4457°
Arg perigee
87.6839°
Mean anomaly
272.4753°
Rev number
35,620

§ Raw data

STARLINK-13271 45555U 20025AA  26263.14614115  .00127330  00000+0  44642-3 0  99932 45555  53.0321 184.4457 0004963  87.6839 272.4753 15.88363137356207

JSON: /api/v1/satellites/45555 · /tle

For live sub-satellite position, see the globe view (requires WebGL).

§ Visibility from observer

Set your observer location to see the next 7 days of passes ≥ 10°. The values pass through the URL so the page stays shareable.

No JS? Fill the form by hand. The geolocation button needs JavaScript.